Weather History for KAFF - September, 2013

Change the Weather History Date:

Saturday, September 14, 2013

  Actual Average Record
Temperature  
Mean Temperature 61 °F -  
Max Temperature 71 °F 71 °F - (-1)
Min Temperature 51 °F 44 °F - (-1)
Degree Days  
Heating Degree Days 4    
Growing Degree Days 11 (Base 50)    
Moisture  
Dew Point 54 °F    
Average Humidity 83    
Maximum Humidity 100    
Minimum Humidity 50    
Precipitation  
Precipitation 0.00 in - - ()
Sea Level Pressure  
Sea Level Pressure 30.05 in    
Wind  
Wind Speed 6 mph (WSW)    
Max Wind Speed 16 mph    
Max Gust Speed 20 mph    
Visibility 9 miles    
Events Fog , Rain , Thunderstorm    
Averages and records for this station are not official NWS values.
T = Trace of Precipitation, MM = Missing Value Source: NWS Daily Summary

Daily Weather History Graph

Daily Weather History Graph

Search for Another Location

Airport or City:

Trip Planner

Search our weather history database for the weather conditions in past years. The results will help you decide how hot, cold, wet, or windy it might be!

Date:

Astronomy

Sep. 14, 2013 Rise Set
Actual Time 6:40 AM MDT 7:08 PM MDT
Civil Twilight 6:13 AM MDT 7:35 PM MDT
Nautical Twilight 5:41 AM MDT 8:06 PM MDT
Astronomical Twilight 5:09 AM MDT 8:39 PM MDT
Moon 3:50 PM MDT (9/14) 1:16 AM MDT (9/14)
Length of Visible Light 13h 22m
Length of Day
12h 28m
Waxing Gibbous, 73% of the Moon is Illuminated
Sep 14
Waxing Gibbous
Sep 19
Full
Sep 26
Last Quarter
Oct 4
New
Oct 11
First Quarter

Hourly Weather History & Observations

Time (MDT) Temp. Dew Point Humidity Pressure Visibility Wind Dir Wind Speed Gust Speed Precip Events Conditions
12:45 AM 57.2 °F 55.4 °F 94% 30.09 in 10.0 mi South 5.8 mph - N/A   Overcast
12:49 AM 57.2 °F 55.4 °F 94% 30.09 in 10.0 mi South 4.6 mph - N/A   Overcast
12:55 AM 57.2 °F 55.4 °F 94% 30.09 in 10.0 mi South 4.6 mph - N/A   Overcast
1:00 AM 57.2 °F 55.4 °F 94% 30.09 in 10.0 mi South 4.6 mph - N/A   Overcast
1:01 AM 57.2 °F 55.4 °F 94% 30.09 in 10.0 mi South 4.6 mph - N/A   Overcast
1:02 AM 57.2 °F 55.4 °F 94% 30.09 in 10.0 mi South 4.6 mph - N/A   Overcast
1:04 AM 57.2 °F 55.4 °F 94% 30.09 in 10.0 mi South 4.6 mph - N/A   Overcast
1:05 AM 57.2 °F 55.4 °F 94% 30.09 in 10.0 mi South 4.6 mph - N/A   Overcast
1:07 AM 57.2 °F 55.4 °F 94% 30.09 in 10.0 mi South 5.8 mph - N/A   Overcast
1:23 AM 55.4 °F 55.4 °F 100% 30.09 in 10.0 mi SSE 5.8 mph - N/A   Scattered Clouds
1:55 AM 55.4 °F 53.6 °F 94% 30.08 in 10.0 mi WSW 4.6 mph - N/A   Clear
2:55 AM 53.6 °F 53.6 °F 100% 30.06 in 10.0 mi Calm Calm - N/A   Partly Cloudy
3:07 AM 53.6 °F 53.6 °F 100% 30.06 in 10.0 mi Calm Calm - N/A   Mostly Cloudy
3:31 AM 53.6 °F 53.6 °F 100% 30.06 in 10.0 mi ENE 3.5 mph - N/A   Overcast
3:55 AM 53.6 °F 53.6 °F 100% 30.06 in 10.0 mi East 4.6 mph - N/A   Overcast
4:31 AM 53.6 °F 53.6 °F 100% 30.05 in 10.0 mi East 3.5 mph - N/A   Mostly Cloudy
4:37 AM 53.6 °F 53.6 °F 100% 30.05 in 10.0 mi ENE 4.6 mph - N/A   Scattered Clouds
4:48 AM 53.6 °F 53.6 °F 100% 30.05 in 10.0 mi ENE 4.6 mph - N/A   Mostly Cloudy
4:55 AM 53.6 °F 53.6 °F 100% 30.05 in 10.0 mi East 4.6 mph - N/A   Mostly Cloudy
5:23 AM 51.8 °F 51.8 °F 100% 30.05 in 10.0 mi Variable 4.6 mph - N/A   Scattered Clouds
5:55 AM 51.6 °F 51.4 °F 99% 29.79 in 10.0 mi ESE 3.5 mph - N/A   Scattered Clouds
6:12 AM 51.8 °F 51.8 °F 100% 30.06 in 10.0 mi ESE 3.5 mph - N/A   Scattered Clouds
6:55 AM 51.6 °F 51.3 °F 99% 30.06 in 10.0 mi North 2.3 mph - N/A Fog Patches of Fog
7:55 AM 54.3 °F 54.0 °F 99% 30.06 in 10.0 mi Variable 2.3 mph - N/A   Mostly Cloudy
8:55 AM 57.2 °F 55.4 °F 94% 30.06 in 10.0 mi NNE 2.3 mph - N/A   Clear
9:55 AM 64.4 °F 51.8 °F 64% 30.06 in 6.0 mi South 3.5 mph - N/A   Haze
10:10 AM 66.2 °F 50.0 °F 56% 30.06 in 10.0 mi South 6.9 mph - N/A   Partly Cloudy
10:55 AM 68.4 °F 49.5 °F 51% 30.06 in 10.0 mi SSE 5.8 mph - N/A   Clear
11:55 AM 69.8 °F 53.6 °F 56% 30.05 in 10.0 mi South 11.5 mph - N/A   Clear
12:55 PM 71.6 °F 53.6 °F 53% 30.04 in 10.0 mi South 9.2 mph - N/A   Clear
1:55 PM 71.6 °F 51.8 °F 50% 30.03 in 10.0 mi South 12.7 mph - N/A   Clear
2:55 PM 69.8 °F 55.4 °F 60% 30.02 in 10.0 mi SSE 15.0 mph - N/A   Clear
3:55 PM 68.0 °F 55.4 °F 64% 30.00 in 10.0 mi South 10.4 mph - N/A   Clear
4:26 PM 66.2 °F 55.4 °F 68% 30.00 in 10.0 mi South 5.8 mph - N/A Rain Light Rain
4:34 PM 66.2 °F 57.2 °F 73% 30.00 in 10.0 mi South 4.6 mph - N/A Rain Light Rain
4:45 PM 66.2 °F 57.2 °F 73% 30.01 in 10.0 mi West 5.8 mph - N/A Rain Light Rain
4:52 PM 66.2 °F 57.2 °F 73% 30.01 in 10.0 mi WSW 5.8 mph - N/A   Scattered Clouds
4:55 PM 66.2 °F 57.2 °F 73% 30.01 in 10.0 mi WSW 5.8 mph - N/A   Scattered Clouds
4:56 PM 66.2 °F 57.2 °F 73% 30.01 in 10.0 mi SW 5.8 mph - N/A   Light Drizzle
5:23 PM 64.4 °F 55.4 °F 73% 30.02 in 10.0 mi SW 5.8 mph - N/A Rain Light Rain
5:28 PM 62.6 °F 55.4 °F 77% 30.02 in 7.0 mi WSW 3.5 mph - N/A Rain Light Rain
5:30 PM 62.6 °F 55.4 °F 77% 30.02 in 7.0 mi Variable 4.6 mph - N/A Rain Light Rain
5:39 PM 62.6 °F 53.6 °F 72% 30.03 in 10.0 mi NW 4.6 mph - N/A Rain Light Rain
5:41 PM 62.6 °F 51.8 °F 68% 30.03 in 10.0 mi NW 4.6 mph - N/A   Mostly Cloudy
5:55 PM 64.4 °F 53.6 °F 68% 30.04 in 10.0 mi NNW 6.9 mph - N/A Thunderstorm Mostly Cloudy
6:11 PM 62.6 °F 51.8 °F 68% 30.04 in 10.0 mi NNW 16.1 mph - N/A Rain Light Rain
6:33 PM 62.6 °F 50.0 °F 63% 30.06 in 10.0 mi NNW 13.8 mph - N/A   Scattered Clouds
6:45 PM 62.6 °F 50.0 °F 63% 30.07 in 10.0 mi NW 13.8 mph - N/A Rain , Thunderstorm Light Rain
6:53 PM 60.8 °F 51.8 °F 72% 30.07 in 4.0 mi West 12.7 mph - N/A Rain , Thunderstorm Rain
6:54 PM 60.8 °F 53.6 °F 77% 30.08 in 3.0 mi West 13.8 mph - N/A Rain , Thunderstorm Rain
6:55 PM 60.8 °F 53.6 °F 77% 30.08 in 2.5 mi WNW 12.7 mph - N/A Rain , Thunderstorm Heavy Rain
6:57 PM 59.0 °F 53.6 °F 82% 30.08 in 1.8 mi WNW 10.4 mph - N/A Rain Heavy Rain
7:06 PM 57.2 °F 51.8 °F 82% 30.08 in 1.5 mi NNW 11.5 mph 19.6 mph N/A Rain Heavy Rain
7:09 PM 57.2 °F 51.8 °F 82% 30.08 in 2.0 mi NNW 12.7 mph 19.6 mph N/A Rain Heavy Rain
7:11 PM 57.2 °F 51.8 °F 82% 30.08 in 3.0 mi NNW 12.7 mph 19.6 mph N/A Rain Heavy Rain
7:13 PM 57.2 °F 51.8 °F 82% 30.08 in 4.0 mi NNW 10.4 mph - N/A Rain Rain
7:17 PM 57.2 °F 51.8 °F 82% 30.08 in 5.0 mi North 10.4 mph - N/A Rain Heavy Rain
7:33 PM 55.4 °F 51.8 °F 88% 30.08 in 10.0 mi NNW 10.4 mph - N/A   Overcast
7:55 PM 57.2 °F 53.6 °F 88% 30.09 in 10.0 mi North 8.1 mph - N/A   Mostly Cloudy
8:55 PM 55.4 °F 53.6 °F 94% 30.09 in 10.0 mi NNW 5.8 mph - N/A   Partly Cloudy
9:55 PM 53.6 °F 53.6 °F 100% 30.09 in 10.0 mi NNW 8.1 mph - N/A   Clear
10:55 PM 53.6 °F 51.8 °F 94% 30.10 in 10.0 mi North 9.2 mph - N/A   Clear
11:55 PM 53.6 °F 50.0 °F 88% 30.11 in 10.0 mi North 5.8 mph - N/A   Scattered Clouds